Location: Arrien
(42.8963°N, 1.0429°E)
Time: 05:18:42
(UTC+00:00)

NOAA 15 - Pass Details

Date: 28 April 2026
Orbit: 793 x 810 km, 98.5° (Epoch: 11 May)

Event Time Altitude Azimuth Distance (km) Brightness Sun altitude
Rises 19:58:29 0° 224° (SW) 3,306 7.9 -11.5°
Reaches altitude 10° 20:04:02 10° 272° (W) 2,379 8.0 -12.4°
Maximum altitude 20:04:08 10° 273° (W) 2,379 8.0 -12.4°
Drops below altitude 10° 20:04:15 10° 274° (W) 2,379 8.1 -12.4°
Sets 20:09:50 0° 323° (NW) 3,313 9.3 -13.3°
